Date String (YYYY-MM-DD hh:mm:ss) UTC,Instrument flags,absolute air pressure of the measurement (hPa),sample flow rate (lpm),inlet stack bypass flow (lpm),air temperature of the measurement (°C),ambient temperature measured by the external sensor (°C),aerosol sample conditioner tube jacket temperature (°C),OPC LED temperature (°C),internal box temperature (°C),relative humidity of the measurement (%),span deviation,mass concentration of particles derived from Lorenz-Mie calculation of OPC scattering (μg/m³),mass concentration of particles derived from Lorenz-Mie calculation of OPC scattering (μg/m³),mass concentration of particles derived from Lorenz-Mie calculation of OPC scattering (μg/m³)
DateTimeUTC,F1_M11,P_M11,Q1_M11,Q2_M11,T1_M11,T2_M11,T3_M11,T4_M11,T5_M11,U1_M11,ZSPAN_M11,X0_M11,X2_M11,X1_M11
2024-06-18 22:00:00,SystemResetWarning,0826.9,5.00,000.00,029.4,028.7,000.0,037.9,031.3,012.8,0000.0,0034.79,0004.70,0001.93
2024-06-18 22:01:00,SystemResetWarning,0827.0,4.99,000.00,029.4,028.7,000.0,037.9,031.3,011.9,0000.0,0034.82,0004.71,0001.91
2024-06-18 22:02:00,SystemResetWarning,0827.1,5.00,000.00,029.5,028.8,000.0,037.9,031.3,011.9,0000.0,0034.23,0004.71,0001.92
2024-06-18 22:03:00,SystemResetWarning,0827.0,5.01,000.00,029.5,028.8,000.0,037.9,031.3,011.7,0000.0,0034.16,0004.78,0001.94
2024-06-18 22:04:00,SystemResetWarning,0827.1,5.00,000.00,029.5,028.8,000.0,037.9,031.3,011.8,0000.0,0034.22,0004.81,0001.98
2024-06-18 22:05:00,SystemResetWarning,0827.1,5.00,000.00,029.5,028.8,000.0,037.9,031.3,012.0,0000.0,0033.06,0004.83,0001.99
2024-06-18 22:06:00,SystemResetWarning,0827.1,5.00,000.00,029.5,028.8,000.0,037.9,031.3,011.6,0000.0,0032.95,0004.80,0001.99
2024-06-18 22:07:00,SystemResetWarning,0827.1,5.00,000.00,029.5,028.8,000.0,038.0,031.3,012.0,0000.0,0032.50,0004.76,0001.98
2024-06-18 22:08:00,SystemResetWarning,0827.1,5.01,000.00,029.5,028.8,000.0,038.0,031.3,012.0,0000.0,0031.94,0004.73,0001.96
2024-06-18 22:09:00,SystemResetWarning,0827.0,5.00,000.00,029.5,028.8,000.0,038.0,031.3,011.7,0000.0,0031.77,0004.70,0001.98
2024-06-18 22:10:00,SystemResetWarning,0827.1,5.01,000.00,029.5,028.8,000.0,038.0,031.3,011.9,0000.0,0031.13,0004.78,0002.00
2024-06-18 22:11:00,SystemResetWarning,0827.0,5.00,000.00,029.6,028.9,000.0,038.0,031.4,012.0,0000.0,0030.37,0004.83,0002.02
2024-06-18 22:12:00,SystemResetWarning,0827.0,5.00,000.00,029.6,028.9,000.0,038.0,031.4,012.0,0000.0,0031.58,0004.84,0002.06
2024-06-18 22:13:00,SystemResetWarning,0827.0,5.00,000.00,029.6,028.9,000.0,038.0,031.4,011.8,0000.0,0031.96,0004.88,0002.06
2024-06-18 22:14:00,SystemResetWarning,0827.0,4.99,000.00,029.6,028.9,000.0,038.0,031.4,012.0,0000.0,0033.04,0004.94,0002.07
2024-06-18 22:15:00,SystemResetWarning,0827.0,5.00,000.00,029.6,028.9,000.0,038.0,031.4,012.3,0000.0,0032.66,0005.00,0002.07
2024-06-18 22:16:00,SystemResetWarning,0827.0,5.00,000.00,029.6,028.9,000.0,038.1,031.4,012.1,0000.0,0032.20,0005.12,0002.11
2024-06-18 22:17:00,SystemResetWarning,0826.9,5.01,000.00,029.6,028.9,000.0,038.1,031.4,012.4,0000.0,0032.51,0005.29,0002.14
2024-06-18 22:18:00,SystemResetWarning,0826.9,5.00,000.00,029.6,028.9,000.0,038.1,031.4,011.7,0000.0,0033.91,0005.33,0002.15
2024-06-18 22:19:00,SystemResetWarning,0826.9,5.01,000.00,029.6,028.9,000.0,038.1,031.4,011.8,0000.0,0033.41,0005.37,0002.18
2024-06-18 22:20:00,SystemResetWarning,0826.9,5.00,000.00,029.6,028.9,000.0,038.1,031.4,011.8,0000.0,0032.04,0005.34,0002.17
2024-06-18 22:21:00,SystemResetWarning,0826.9,4.99,000.00,029.6,028.9,000.0,038.1,031.5,012.1,0000.0,0031.54,0005.24,0002.16
2024-06-18 22:22:00,SystemResetWarning,0826.9,5.00,000.00,029.7,028.9,000.0,038.1,031.5,011.7,0000.0,0031.02,0005.20,0002.13
2024-06-18 22:23:00,SystemResetWarning,0826.9,4.99,000.00,029.7,028.9,000.0,038.1,031.4,012.0,0000.0,0029.64,0005.17,0002.11
2024-06-18 22:24:00,SystemResetWarning,0826.9,5.01,000.00,029.7,028.9,000.0,038.1,031.4,011.9,0000.0,0028.67,0005.14,0002.10
2024-06-18 22:25:00,SystemResetWarning,0826.9,5.01,000.00,029.7,029.0,000.0,038.1,031.5,011.8,0000.0,0027.71,0005.10,0002.08
2024-06-18 22:26:00,SystemResetWarning,0826.9,5.00,000.00,029.7,029.0,000.0,038.1,031.5,011.9,0000.0,0026.64,0005.00,0002.07
2024-06-18 22:27:00,SystemResetWarning,0826.9,5.00,000.00,029.7,029.0,000.0,038.2,031.5,011.9,0000.0,0025.07,0004.86,0002.04
2024-06-18 22:28:00,SystemResetWarning,0826.9,5.00,000.00,029.7,029.0,000.0,038.2,031.5,011.8,0000.0,0025.40,0004.83,0002.01
2024-06-18 22:29:00,SystemResetWarning,0827.0,4.99,000.00,029.7,029.0,000.0,038.2,031.5,012.0,0000.0,0025.25,0004.76,0002.00
2024-06-18 22:30:00,SystemResetWarning,0826.9,5.00,000.00,029.7,029.0,000.0,038.2,031.5,011.8,0000.0,0025.21,0004.71,0001.98
2024-06-18 22:31:00,SystemResetWarning,0826.9,5.00,000.00,029.7,029.0,000.0,038.2,031.5,011.8,0000.0,0025.57,0004.70,0001.97
2024-06-18 22:32:00,SystemResetWarning,0826.9,5.00,000.00,029.7,029.0,000.0,038.2,031.5,011.6,0000.0,0026.19,0004.75,0001.95
2024-06-18 22:33:00,SystemResetWarning,0827.0,5.00,000.00,029.7,029.0,000.0,038.2,031.5,011.9,0000.0,0025.82,0004.81,0001.96
2024-06-18 22:34:00,SystemResetWarning,0827.0,5.01,000.00,029.7,029.0,000.0,038.2,031.5,011.6,0000.0,0025.58,0004.84,0001.98
2024-06-18 22:35:00,SystemResetWarning,0827.0,5.01,000.00,029.7,029.0,000.0,038.2,031.5,012.0,0000.0,0025.73,0004.82,0001.99
2024-06-18 22:36:00,SystemResetWarning,0827.0,5.01,000.00,029.7,029.0,000.0,038.2,031.5,011.9,0000.0,0025.05,0004.77,0002.01
2024-06-18 22:37:00,SystemResetWarning,0827.0,4.99,000.00,029.8,029.0,000.0,038.2,031.5,012.0,0000.0,0025.66,0004.82,0001.99
2024-06-18 22:38:00,SystemResetWarning,0827.0,4.99,000.00,029.8,029.1,000.0,038.3,031.6,012.0,0000.0,0026.32,0004.94,0002.00
2024-06-18 22:39:00,SystemResetWarning,0826.9,5.01,000.00,029.8,029.1,000.0,038.3,031.6,012.0,0000.0,0026.33,0004.90,0002.02
2024-06-18 22:40:00,SystemResetWarning,0826.9,5.01,000.00,029.8,029.1,000.0,038.3,031.6,011.6,0000.0,0027.07,0005.03,0002.06
2024-06-18 22:41:00,SystemResetWarning,0826.9,5.01,000.00,029.8,029.1,000.0,038.3,031.6,012.0,0000.0,0028.46,0005.08,0002.05
2024-06-18 22:42:00,SystemResetWarning,0826.9,4.99,000.00,029.8,029.1,000.0,038.3,031.6,011.8,0000.0,0028.05,0005.06,0002.07
2024-06-18 22:43:00,SystemResetWarning,0827.0,4.99,000.00,029.8,029.1,000.0,038.3,031.6,011.7,0000.0,0027.70,0005.04,0002.07
2024-06-18 22:44:00,SystemResetWarning,0826.9,5.00,000.00,029.8,029.1,000.0,038.3,031.7,011.5,0000.0,0028.17,0005.05,0002.09
2024-06-18 22:45:00,SystemResetWarning,0826.9,5.01,000.00,029.8,029.1,000.0,038.3,031.7,011.5,0000.0,0027.86,0004.99,0002.09
2024-06-18 22:46:00,SystemResetWarning,0826.9,5.01,000.00,029.9,029.2,000.0,038.3,031.7,011.6,0000.0,0027.65,0004.97,0002.07
2024-06-18 22:47:00,SystemResetWarning,0826.9,5.00,000.00,029.9,029.2,000.0,038.3,031.7,011.4,0000.0,0029.85,0004.99,0002.09
2024-06-18 22:48:00,SystemResetWarning,0826.9,4.99,000.00,029.9,029.2,000.0,038.4,031.7,011.6,0000.0,0030.69,0004.98,0002.10
2024-06-18 22:49:00,SystemResetWarning,0826.9,5.00,000.00,029.9,029.2,000.0,038.4,031.7,011.6,0000.0,0031.05,0004.93,0002.11
2024-06-18 22:50:00,SystemResetWarning,0826.9,4.99,000.00,029.9,029.2,000.0,038.4,031.7,011.7,0000.0,0029.54,0004.90,0002.13
2024-06-18 22:51:00,SystemResetWarning,0826.9,4.99,000.00,029.9,029.2,000.0,038.4,031.8,011.8,0000.0,0028.19,0004.87,0002.09
2024-06-18 22:52:00,SystemResetWarning,0826.9,5.01,000.00,029.9,029.2,000.0,038.4,031.7,011.6,0000.0,0026.58,0004.82,0002.11
2024-06-18 22:53:00,SystemResetWarning,0826.9,5.01,000.00,029.9,029.2,000.0,038.4,031.8,011.8,0000.0,0026.88,0004.84,0002.13
2024-06-18 22:54:00,SystemResetWarning,0826.8,5.00,000.00,030.0,029.2,000.0,038.4,031.8,011.6,0000.0,0025.84,0004.85,0002.15
2024-06-18 22:55:00,SystemResetWarning,0826.8,5.00,000.00,030.0,029.3,000.0,038.4,031.7,011.5,0000.0,0025.53,0004.86,0002.14
2024-06-18 22:56:00,SystemResetWarning,0826.9,5.00,000.00,030.0,029.3,000.0,038.4,031.8,011.7,0000.0,0026.03,0004.91,0002.13
2024-06-18 22:57:00,SystemResetWarning,0826.9,5.00,000.00,030.0,029.3,000.0,038.4,031.8,011.8,0000.0,0026.03,0004.96,0002.14
2024-06-18 22:58:00,SystemResetWarning,0827.0,5.01,000.00,030.0,029.3,000.0,038.5,031.7,011.7,0000.0,0024.15,0004.98,0002.13
2024-06-18 22:59:00,SystemResetWarning,0827.0,5.01,000.00,030.0,029.3,000.0,038.5,031.8,011.9,0000.0,0024.96,0005.01,0002.13
